Location: Baia Mare
(47.6567°N, 23.5850°E)
Time: 13:32:59
(UTC+03:00)

ISS - Pass Details

Date: 20 July 2019
Orbit: 409 x 418 km, 51.6° (Epoch: 21 July)

Event Time Altitude Azimuth Distance (km) Brightness Sun altitude
Rises 04:05:32 0° 289° (WNW) 2,346 -0.1 -13.4°
Reaches altitude 10° 04:07:52 10° 275° (W) 1,479 -1.3 -13.2°
Enters shadow 04:09:04 17° 259° (W) 1,114 -2.0 -13.1°
Exits shadow 04:11:55 19° 184° (S) 1,058 -2.2 -12.8°
Drops below altitude 10° 04:13:19 10° 164° (SSE) 1,468 -1.3 -12.6°
Sets 04:15:38 0° 149° (SSE) 2,324 -0.2 -12.4°
